Location: Chervonnoye
(48.6000°N, 34.4000°E)
Time: 15:17:32
(UTC+00:00)

YAOGAN 1 - Pass Details

Date: 23 November 2020
Orbit: 618 x 620 km, 97.9° (Epoch: 27 January)

Event Time Altitude Azimuth Distance (km) Brightness Sun altitude
Exits shadow 16:26:28 55° 182° (S) 747 2.9 -24.6°
Maximum altitude 16:27:22 80° 256° (WSW) 637 2.6 -24.8°
Drops below altitude 10° 16:31:44 10° 344° (NNW) 1,999 5.3 -25.5°
Sets 16:33:56 0° 346° (NNW) 2,911 6.2 -25.9°
